Location: Hernandez
(10.3704°N, 67.2181°W)
Time: 17:52:14
(UTC+00:00)

GPS 2-17 Rocket1 - Pass Details

Date: 13 April 2024
Orbit: 560 x 639 km, 20.3° (Epoch: 23 May)

Event Time Altitude Azimuth Distance (km) Brightness Sun altitude
Rises 23:43:57 0° 297° (WNW) 2,778 8.0 -16.3°
Reaches altitude 10° 23:46:30 10° 308° (NW) 1,866 6.5 -16.9°
Maximum altitude 23:50:19 30° 10° (N) 1,022 4.2 -17.9°
Enters shadow 23:51:54 23° 48° (NE) 1,202 4.2 -18.2°
